[[{"header":{"parameterUnit":"m.s-1","parameterCategory":1,"la1":30.2991,"la2":30.254,"lo1":-89.0895,"lo2":-89.0444,"dy":0.0017,"dx":0.0017,"nx":28,"ny":28,"refTime":"2023-04-12T21:00:00:Z","depth":0,"parameterNumber":2,"parameterNumberName":"U-component_of_WINDS"},"data":[0,0,0,0,0,0,0,0,0,0,0,0,0,0,0,0,0,0,0,0,0,0,0,0,0,0,0,0,0,0,0,0,0,0,0,0,0,0,0,0,0,0,0,0,0,0,0,0,0,0,0,0,0,0,0,0,0,0,6.8312,6.831,0,6.812,6.8118,6.8116,6.783,6.7825,6.782,6.7815,6.761,6.7609,6.7609,0,0,0,0,0,0,0,0,0,0,0,0,0,6.8431,6.8431,6.8312,6.831,6.8308,6.812,6.8118,6.8115,6.7831,6.7824,6.7818,6.7813,6.761,6.7609,6.7608,0,0,0,0,0,0,0,0,0,0,0,0,0,6.8324,6.843,6.8313,6.8143,6.8126,6.8121,6.8118,6.8114,6.7832,6.7824,6.7817,6.781,6.7611,6.761,6.7608,6.7751,0,0,6.7605,6.7604,0,0,0,0,0,0,0,0,6.833,6.8319,6.8171,6.8155,6.8136,6.7991,6.8084,6.7992,6.7834,6.7943,6.7815,6.7806,6.7743,6.773,6.771,6.7741,6.7733,6.7605,6.7604,6.7603,6.7603,0,0,0,0,0,0,0,6.8338,6.8326,6.8236,6.8169,6.8148,6.8076,6.8053,6.8065,6.7887,6.7933,6.7912,6.7894,6.7731,6.7712,6.7703,6.773,6.7605,6.7604,6.7603,6.7602,6.7871,6.7878,0,0,0,0,0,0,6.8371,6.8334,6.8242,6.823,6.8217,6.808,6.8054,6.8045,6.7886,6.7855,6.79,6.7881,6.7718,6.7705,6.7695,6.785,6.7603,6.7602,6.7602,6.7863,6.7872,6.7881,0,0,0,0,0,0,6.8375,6.8366,6.825,6.8277,6.8256,6.8086,6.8079,6.8045,6.8025,6.7861,6.7828,6.7913,6.7711,6.7697,6.774,6.7839,6.7602,6.7601,6.7854,6.7866,6.7877,6.8163,0,0,0,0,0,0,6.8379,6.8369,6.8421,6.828,6.8256,6.83,6.8085,6.8047,6.8025,6.7998,6.7864,6.7835,6.7704,6.7744,6.7739,6.7833,6.76,6.7844,6.7859,6.7873,6.8144,6.8183,6.8217,0,0,0,0,0,6.8385,6.8507,6.8425,6.8415,6.8318,6.8306,6.8292,6.8141,6.8034,6.8085,6.7981,6.7839,6.7832,6.7751,6.7743,6.7838,6.7836,6.7855,6.7872,6.8127,6.8176,6.8216,0,0,0,0,0,0,6.8659,6.8485,6.8392,6.8473,6.8407,6.8258,6.8316,6.8197,6.8157,6.8133,6.7946,6.7919,6.7986,6.7917,6.783,6.7969,6.7813,6.783,6.801,6.8054,6.809,6.8101,6.7599,0,0,0,0,0,6.8731,6.8736,6.8583,6.867,6.8642,6.8487,6.8475,6.8367,6.8289,6.8259,6.8157,6.8086,6.8067,6.8058,6.8032,6.8137,6.8102,6.8199,6.8236,6.8267,6.8281,6.8331,6.8371,6.7939,6.7939,6.7938,0,0,6.8874,6.878,6.8794,6.8723,6.8658,6.8668,6.8464,6.8482,6.8486,6.826,6.8294,6.822,6.8129,6.8204,6.8232,6.8148,6.8395,6.8289,6.8315,6.8311,6.8353,6.8394,6.8431,6.7951,6.7949,6.7947,0,0,6.914,6.9072,6.9136,6.9078,6.8986,6.8883,6.89,6.8771,6.8713,6.8747,6.8578,6.8582,6.8554,6.8496,6.8463,6.872,6.8587,6.8717,6.8904,6.8955,6.8989,6.9018,6.9106,6.914,6.8733,6.8734,6.8735,0,6.9329,6.9338,6.9183,6.9213,6.9186,6.899,6.9052,6.9004,6.8907,6.8893,6.8804,6.8768,6.8692,6.8751,6.8815,6.8796,6.8807,6.8726,6.8997,6.9025,6.905,6.9131,6.9165,6.875,6.8748,6.8747,6.8745,0,6.9574,6.9584,6.9647,6.9563,6.9544,6.9591,6.9443,6.9444,6.9341,6.9248,6.9286,6.9191,6.9143,6.9151,6.9047,6.9196,6.9147,6.9032,6.8868,6.9109,6.9182,6.9213,6.8773,6.8767,6.8762,6.8759,0,0,6.9997,6.9834,6.9859,6.9819,6.9708,6.9711,6.9752,6.9708,6.9711,6.9655,6.9681,6.9668,6.9561,6.9525,6.9415,6.9461,6.9668,6.9338,6.9333,6.9398,6.9823,6.9906,6.9945,6.9584,6.959,6.9594,6.9829,0,7.0236,7.0294,7.016,7.025,7.0257,7.0075,7.011,7.0046,6.9963,6.9956,6.9864,6.9856,6.9718,6.9695,6.9734,6.9635,6.9749,6.9617,6.9602,6.9604,6.9623,6.9984,7.007,7.0296,6.9857,6.9862,6.9866,0,7.0519,7.0481,7.0574,7.0461,7.0458,7.0492,7.0443,7.0441,7.0366,7.0302,7.0268,7.0142,7.0172,7.0025,7.0064,6.9977,6.9965,6.9917,6.9922,6.9908,6.9743,6.9973,7.0365,7.0397,6.991,6.9906,6.9903,0,7.0814,7.0786,7.0837,7.081,7.0681,7.0709,7.0656,7.0574,7.0558,7.0517,7.0505,7.0468,7.0446,7.0421,7.0288,7.0194,7.0343,7.0184,7.0288,7.0291,7.0318,7.0317,7.0708,7.0325,7.0325,7.0324,7.0324,0,7.109,7.1152,7.0968,7.0999,7.1065,7.0913,7.0982,7.0911,7.0841,7.0855,7.0698,7.0714,7.0542,7.054,7.0438,7.0485,7.0477,7.0425,7.0395,7.0434,7.0441,7.0417,7.0395,7.0333,7.0331,7.0329,7.0328,0,7.1424,7.1304,7.1348,7.1225,7.1196,7.125,7.1143,7.1167,7.1079,7.1099,7.1095,7.0955,7.0945,7.0814,7.0774,7.0706,7.079,7.0735,7.0816,7.0795,7.0904,7.0894,7.1287,7.1329,7.0928,7.0932,7.0936,0,7.1605,7.1649,7.1533,7.1533,7.1488,7.1489,7.1474,7.133,7.132,7.1242,7.1275,7.1254,7.1226,7.1219,7.1112,7.1082,7.102,7.1161,7.1014,7.1053,7.1016,7.1012,7.1014,7.1189,7.1194,7.1198,7.1202,0,7.1937,7.1877,7.1861,7.1828,7.1815,7.178,7.1736,7.1745,7.1586,7.1583,7.1573,7.1554,7.1517,7.1495,7.1448,7.1392,7.127,7.1252,7.1272,7.1308,7.1351,7.1325,7.0893,7.124,7.1236,7.1233,7.1231,7.123,7.2195,7.2226,7.2151,7.214,7.2093,7.2057,7.2073,7.1991,7.198,7.1939,7.1856,7.1859,7.1786,7.171,7.1667,7.1666,7.1592,7.1625,7.1631,7.164,7.166,7.1361,7.1657,7.1656,7.1655,7.1654,7.1653,0,7.2514,7.2459,7.2451,7.2396,7.2389,7.2283,7.223,7.2229,7.2234,7.2179,7.2159,7.2148,7.2129,7.2026,7.1996,7.2015,7.1959,7.2011,7.2004,7.1993,7.1729,7.1711,7.2057,7.2057,7.2057,7.2057,7.2057,7.2057,7.2679,7.2726,7.2659,7.2682,7.2626,7.2628,7.2607,7.2574,7.2529,7.2524,7.2509,7.2444,7.237,7.2334,7.2312,7.2282,7.2275,7.2346,7.2297,7.2051,7.2011,7.1974,7.1955,7.2348,7.2348,7.256,7.2562,7.2563]},{"header":{"parameterUnit":"m.s-1","parameterCategory":1,"la1":30.2991,"la2":30.254,"lo1":-89.0895,"lo2":-89.0444,"dy":0.0017,"dx":0.0017,"nx":28,"ny":28,"refTime":"2023-04-12T21:00:00:Z","depth":0,"parameterNumber":3,"parameterNumberName":"V-component_of_WINDS"},"data":[0,0,0,0,0,0,0,0,0,0,0,0,0,0,0,0,0,0,0,0,0,0,0,0,0,0,0,0,0,0,0,0,0,0,0,0,0,0,0,0,0,0,0,0,0,0,0,0,0,0,0,0,0,0,0,0,0,0,7.1626,7.1635,0,7.2456,7.2466,7.2475,7.2793,7.2791,7.2788,7.2786,7.3637,7.3661,7.3686,0,0,0,0,0,0,0,0,0,0,0,0,0,7.031,7.0332,7.1625,7.1636,7.1646,7.2455,7.2466,7.2478,7.2794,7.2791,7.2788,7.2785,7.3629,7.3658,7.3688,0,0,0,0,0,0,0,0,0,0,0,0,0,7.0984,7.034,7.1623,7.1901,7.1934,7.2453,7.2467,7.2481,7.2794,7.2791,7.2787,7.2784,7.3619,7.3656,7.3693,7.3996,0,0,7.3807,7.3823,0,0,0,0,0,0,0,0,7.0946,7.1032,7.185,7.1883,7.1921,7.2518,7.2315,7.2989,7.2795,7.2468,7.2786,7.2782,7.3268,7.3334,7.3498,7.4036,7.4072,7.381,7.3833,7.3849,7.3859,0,0,0,0,0,0,0,7.0899,7.0998,7.1954,7.1861,7.1905,7.1983,7.2075,7.2444,7.2878,7.2496,7.2521,7.2615,7.3286,7.3461,7.352,7.4085,7.3809,7.3842,7.3865,7.388,7.491,7.4915,0,0,0,0,0,0,7.0806,7.0957,7.1928,7.1979,7.1414,7.201,7.2113,7.233,7.2875,7.2954,7.2617,7.2627,7.3399,7.3476,7.3551,7.3942,7.3848,7.3884,7.3905,7.4905,7.4911,7.4916,0,0,0,0,0,0,7.0776,7.0889,7.1894,7.1476,7.1609,7.2036,7.2278,7.2348,7.2523,7.2967,7.3045,7.2716,7.3399,7.3498,7.3882,7.3975,7.39,7.3934,7.4899,7.4907,7.4914,7.4724,0,0,0,0,0,0,7.0737,7.0877,7.0998,7.1476,7.163,7.2212,7.2284,7.2367,7.2586,7.2607,7.308,7.3155,7.3404,7.3825,7.3919,7.4026,7.3964,7.4893,7.4903,7.4911,7.4724,7.4724,7.4724,0,0,0,0,0,7.0689,7.0912,7.1003,7.1118,7.1791,7.2217,7.2306,7.2587,7.2592,7.2717,7.3001,7.314,7.3948,7.3861,7.3971,7.4089,7.4888,7.49,7.4911,7.4724,7.4724,7.4724,0,0,0,0,0,0,7.0437,7.098,7.1087,7.1471,7.1795,7.227,7.2437,7.2579,7.2909,7.2914,7.3249,7.3353,7.3709,7.3938,7.3831,7.4409,7.4428,7.4461,7.4248,7.4252,7.4252,7.4191,7.3995,0,0,0,0,0,7.0425,7.0726,7.1185,7.148,7.1637,7.2006,7.2203,7.2391,7.2741,7.288,7.3193,7.3526,7.3856,7.4066,7.4394,7.4756,7.4863,7.4891,7.4891,7.4889,7.4915,7.5121,7.5139,7.4953,7.4953,7.4953,0,0,7.0406,7.074,7.091,7.1437,7.1711,7.2014,7.2121,7.2438,7.2667,7.2929,7.3311,7.3549,7.3944,7.4317,7.4497,7.4519,7.4988,7.4903,7.4898,7.4927,7.5134,7.5151,7.5166,7.496,7.4959,7.4958,0,0,7.0526,7.0809,7.1085,7.1355,7.1766,7.201,7.2074,7.2528,7.2697,7.3084,7.3286,7.3561,7.4122,7.4394,7.4605,7.4819,7.4959,7.4916,7.4918,7.5114,7.5129,7.5144,7.522,7.5243,7.4939,7.4939,7.4939,0,7.0451,7.0917,7.1208,7.1515,7.1739,7.1987,7.2268,7.2516,7.3012,7.3162,7.3177,7.3883,7.4166,7.4606,7.4656,7.4819,7.4904,7.4866,7.5103,7.5121,7.5139,7.5215,7.5243,7.4931,7.4932,7.4933,7.4934,0,7.0803,7.1121,7.1295,7.1766,7.201,7.2301,7.2636,7.2847,7.3011,7.3251,7.364,7.3987,7.4388,7.4505,7.467,7.4967,7.4967,7.5038,7.5064,7.5144,7.5221,7.5253,7.492,7.4923,7.4925,7.4927,0,0,7.0794,7.1418,7.1477,7.1692,7.2161,7.2413,7.2713,7.3104,7.3278,7.3609,7.3869,7.4334,7.4402,7.4641,7.4837,7.5009,7.5155,7.5061,7.5075,7.5066,7.5502,7.5447,7.5476,7.5248,7.5254,7.526,7.5469,0,7.0977,7.1527,7.1795,7.2226,7.2523,7.2759,7.302,7.3334,7.3565,7.385,7.4105,7.443,7.4494,7.464,7.482,7.5098,7.5247,7.5087,7.5493,7.5504,7.539,7.5517,7.5462,7.5643,7.5501,7.5507,7.551,0,7.1267,7.1595,7.2055,7.2484,7.2619,7.2849,7.3227,7.3496,7.3855,7.4011,7.4273,7.4463,7.4786,7.4783,7.5232,7.5116,7.5297,7.5458,7.5472,7.5523,7.5514,7.5573,7.5708,7.5734,7.5561,7.5557,7.5553,0,7.1214,7.1771,7.2118,7.2295,7.2804,7.296,7.3179,7.3535,7.3751,7.4079,7.4223,7.4583,7.4782,7.5056,7.5337,7.531,7.5757,7.5779,7.5895,7.5888,7.5983,7.5974,7.6149,7.6094,7.6093,7.6093,7.6092,0,7.1393,7.1665,7.2101,7.2314,7.2625,7.2928,7.3227,7.3464,7.3777,7.4039,7.4264,7.4505,7.486,7.5145,7.5367,7.5703,7.5791,7.5925,7.5981,7.5907,7.589,7.6033,7.6028,7.6101,7.6099,7.6097,7.6096,0,7.1389,7.1691,7.2085,7.2533,7.2651,7.286,7.3244,7.3459,7.3697,7.4026,7.4121,7.4497,7.4843,7.5149,7.5608,7.5757,7.6101,7.617,7.598,7.6011,7.611,7.6096,7.6386,7.644,7.6343,7.6344,7.6344,0,7.1484,7.1699,7.2168,7.2359,7.2574,7.288,7.31,7.3404,7.3624,7.4046,7.4209,7.4571,7.4878,7.542,7.5734,7.6085,7.6164,7.6241,7.6219,7.6136,7.6167,7.6151,7.6174,7.6241,7.624,7.624,7.624,0,7.1621,7.1758,7.2068,7.2428,7.2683,7.2982,7.3287,7.343,7.3791,7.4026,7.4383,7.4619,7.5086,7.5442,7.5827,7.6052,7.6206,7.6243,7.6289,7.6217,7.6098,7.6164,7.5979,7.6236,7.6237,7.6237,7.6237,7.6237,7.1672,7.1872,7.2232,7.2568,7.2828,7.3106,7.3329,7.3594,7.3897,7.43,7.446,7.4822,7.5172,7.5704,7.5927,7.6214,7.6242,7.6307,7.6325,7.6337,7.6324,7.6048,7.6285,7.6286,7.6286,7.6287,7.6287,0,7.1821,7.2063,7.2368,7.2786,7.3048,7.3166,7.3509,7.372,7.4036,7.4349,7.4644,7.5051,7.5396,7.5733,7.6096,7.626,7.6339,7.6345,7.6338,7.6387,7.6279,7.6204,7.6275,7.6275,7.6275,7.6275,7.6275,7.6275,7.193,7.2275,7.2453,7.2927,7.3168,7.3524,7.3709,7.3966,7.4217,7.466,7.4948,7.5164,7.5487,7.5874,7.6194,7.6285,7.6408,7.6395,7.6503,7.6397,7.6395,7.6392,7.6323,7.6418,7.6419,7.6589,7.659,7.6591]}]]